Location: Makakahi
(40.6833°S, 175.6000°E)
Time: 07:04:03
(UTC+00:00)

DMSP F15 (USA 147) - Pass Details

Date: 05 December 2024
Orbit: 827 x 842 km, 99.1° (Epoch: 18 January)

Event Time Altitude Azimuth Distance (km) Brightness Sun altitude
Rises 08:04:11 0° 171° (S) 3,433 8.8 -5.2°
Reaches altitude 10° 08:06:36 10° 175° (S) 2,492 8.1 -5.6°
Maximum altitude 08:11:59 55° 251° (WSW) 1,022 6.1 -6.4°
Drops below altitude 10° 08:17:19 10° 327° (NNW) 2,466 7.6 -7.2°
Sets 08:19:42 0° 331° (NNW) 3,392 8.2 -7.5°
